Time,TemperatureF,DewpointF,PressureIn,WindDirection,WindDirectionDegrees,WindSpeedMPH,WindSpeedGustMPH,Humidity,HourlyPrecipIn,Conditions,Clouds,dailyrainin,SoftwareType,DateUTC
2013-06-15 00:00:00,77.7,75.5,29.92,SSW,209,0.0,0.0,93,0.00,,---,0.00,VWS V14.00,2013-06-15 05:00:00,
2013-06-15 00:10:00,77.5,75.4,29.92,SSW,210,0.0,0.0,93,0.00,,---,0.00,VWS V14.00,2013-06-15 05:10:00,
2013-06-15 00:20:00,77.2,75.0,29.92,SSW,210,0.0,0.0,93,0.00,,---,0.00,VWS V14.00,2013-06-15 05:20:00,
2013-06-15 00:30:00,77.2,75.3,29.92,SSW,211,0.0,0.0,94,0.00,,---,0.00,VWS V14.00,2013-06-15 05:30:00,
2013-06-15 00:40:00,77.0,75.1,29.92,SSW,209,0.0,0.0,94,0.00,,---,0.00,VWS V14.00,2013-06-15 05:40:00,
2013-06-15 00:50:00,77.0,75.1,29.92,SSW,210,0.0,0.0,94,0.00,,---,0.00,VWS V14.00,2013-06-15 05:50:00,
2013-06-15 01:10:00,76.5,74.6,29.92,SSW,210,0.0,0.0,94,0.00,,---,0.00,VWS V14.00,2013-06-15 06:10:00,
2013-06-15 01:20:00,76.5,74.6,29.92,SSW,209,0.0,0.0,94,0.00,,---,0.00,VWS V14.00,2013-06-15 06:20:00,
2013-06-15 01:30:00,76.3,74.4,29.92,SSW,209,0.0,0.0,94,0.00,,---,0.00,VWS V14.00,2013-06-15 06:30:00,
2013-06-15 01:40:00,76.3,74.8,29.92,SSW,209,0.0,0.0,95,0.00,,---,0.00,VWS V14.00,2013-06-15 06:40:00,
2013-06-15 01:50:00,76.3,74.8,29.92,SSW,209,0.0,0.0,95,0.00,,---,0.00,VWS V14.00,2013-06-15 06:50:00,
2013-06-15 02:00:00,76.3,74.8,29.92,SSW,209,0.0,0.0,95,0.00,,---,0.00,VWS V14.00,2013-06-15 07:00:00,
2013-06-15 02:10:00,76.3,74.8,29.92,SSW,210,0.0,0.0,95,0.00,,---,0.00,VWS V14.00,2013-06-15 07:10:00,
2013-06-15 02:20:00,75.9,74.4,29.92,SSW,209,0.0,0.0,95,0.00,,---,0.00,VWS V14.00,2013-06-15 07:20:00,
2013-06-15 02:30:00,75.9,74.7,29.92,SSW,210,0.0,0.0,96,0.00,,---,0.00,VWS V14.00,2013-06-15 07:30:00,
2013-06-15 02:40:00,75.6,74.3,29.92,SSW,210,0.0,0.0,96,0.00,,---,0.00,VWS V14.00,2013-06-15 07:40:00,
2013-06-15 02:50:00,75.4,74.2,29.92,SSW,209,0.0,0.0,96,0.00,,---,0.00,VWS V14.00,2013-06-15 07:50:00,
2013-06-15 03:00:00,75.2,74.0,29.92,SSW,209,0.0,0.0,96,0.00,,---,0.00,VWS V14.00,2013-06-15 08:00:00,
2013-06-15 03:10:00,75.0,73.8,29.92,SSW,210,0.0,0.0,96,0.00,,---,0.00,VWS V14.00,2013-06-15 08:10:00,
2013-06-15 03:20:00,74.8,73.6,29.92,SSW,210,0.0,0.0,96,0.00,,---,0.00,VWS V14.00,2013-06-15 08:20:00,
2013-06-15 03:30:00,74.7,73.4,29.92,SSW,210,0.0,0.0,96,0.00,,---,0.00,VWS V14.00,2013-06-15 08:30:00,
2013-06-15 03:40:00,74.7,73.4,29.89,SSW,209,0.0,0.0,96,0.00,,---,0.00,VWS V14.00,2013-06-15 08:40:00,
2013-06-15 03:50:00,74.5,73.3,29.89,SSW,209,0.0,0.0,96,0.00,,---,0.00,VWS V14.00,2013-06-15 08:50:00,
2013-06-15 04:00:00,74.3,73.1,29.89,SSW,209,0.0,0.0,96,0.00,,---,0.00,VWS V14.00,2013-06-15 09:00:00,
2013-06-15 04:10:00,74.3,73.1,29.89,SSW,209,0.0,0.0,96,0.00,,---,0.00,VWS V14.00,2013-06-15 09:10:00,
2013-06-15 04:20:00,74.5,73.3,29.92,SSW,210,0.0,3.1,96,0.00,,---,0.00,VWS V14.00,2013-06-15 09:20:00,
2013-06-15 04:30:00,74.8,73.6,29.92,ESE,107,0.0,9.2,96,0.00,,---,0.00,VWS V14.00,2013-06-15 09:30:00,
2013-06-15 04:40:00,74.7,73.4,29.92,South,171,0.0,5.8,96,0.00,,---,0.00,VWS V14.00,2013-06-15 09:40:00,
2013-06-15 04:50:00,74.3,73.1,29.92,SE,132,0.0,7.4,96,0.00,,---,0.00,VWS V14.00,2013-06-15 09:50:00,
2013-06-15 05:00:00,74.1,72.9,29.92,ENE,72,0.0,7.8,96,0.00,,---,0.00,VWS V14.00,2013-06-15 10:00:00,
2013-06-15 05:10:00,74.1,72.9,29.92,ENE,64,0.0,4.5,96,0.00,,---,0.00,VWS V14.00,2013-06-15 10:10:00,
2013-06-15 05:20:00,73.9,72.7,29.92,ENE,58,0.0,3.1,96,0.00,,---,0.00,VWS V14.00,2013-06-15 10:20:00,
2013-06-15 05:30:00,73.8,72.6,29.92,ENE,57,0.0,3.1,96,0.00,,---,0.00,VWS V14.00,2013-06-15 10:30:00,
2013-06-15 05:40:00,73.8,72.6,29.89,ENE,58,0.0,0.0,96,0.00,,---,0.00,VWS V14.00,2013-06-15 10:40:00,
2013-06-15 05:50:00,73.8,72.6,29.89,ENE,57,0.0,0.0,96,0.00,,---,0.00,VWS V14.00,2013-06-15 10:50:00,
2013-06-15 06:00:00,73.8,72.6,29.89,ENE,58,0.0,0.0,96,0.00,,---,0.00,VWS V14.00,2013-06-15 11:00:00,
2013-06-15 06:10:00,73.8,72.6,29.89,ENE,58,0.0,0.0,96,0.00,,---,0.00,VWS V14.00,2013-06-15 11:10:00,
2013-06-15 06:20:00,73.8,72.6,29.92,ENE,59,0.0,0.0,96,0.00,,---,0.00,VWS V14.00,2013-06-15 11:20:00,
2013-06-15 06:30:00,73.8,72.6,29.92,ENE,58,0.0,0.0,96,0.00,,---,0.00,VWS V14.00,2013-06-15 11:30:00,
2013-06-15 06:40:00,73.8,72.6,29.92,ENE,57,0.0,0.0,96,0.00,,---,0.00,VWS V14.00,2013-06-15 11:40:00,
2013-06-15 06:50:00,73.8,72.6,29.95,ENE,57,0.0,0.0,96,0.00,,---,0.00,VWS V14.00,2013-06-15 11:50:00,
2013-06-15 07:00:00,73.9,72.7,29.95,ENE,59,0.0,0.0,96,0.00,,---,0.00,VWS V14.00,2013-06-15 12:00:00,
2013-06-15 07:10:00,74.1,72.9,29.95,ENE,66,0.0,3.6,96,0.00,,---,0.00,VWS V14.00,2013-06-15 12:10:00,
2013-06-15 07:20:00,74.3,73.1,29.95,ENE,62,0.0,3.1,96,0.00,,---,0.00,VWS V14.00,2013-06-15 12:20:00,
2013-06-15 07:30:00,74.7,73.4,29.95,ENE,66,0.0,3.1,96,0.00,,---,0.00,VWS V14.00,2013-06-15 12:30:00,
2013-06-15 07:40:00,75.2,74.0,29.95,SSW,192,0.0,4.5,96,0.00,,---,0.00,VWS V14.00,2013-06-15 12:40:00,
2013-06-15 07:50:00,75.4,73.8,29.95,SSE,167,0.0,4.5,95,0.00,,---,0.00,VWS V14.00,2013-06-15 12:50:00,
2013-06-15 08:00:00,75.9,74.4,29.95,ENE,58,0.0,4.0,95,0.00,,---,0.00,VWS V14.00,2013-06-15 13:00:00,
2013-06-15 08:10:00,76.3,74.1,29.98,SE,140,0.0,5.8,93,0.00,,---,0.00,VWS V14.00,2013-06-15 13:10:00,
2013-06-15 08:20:00,76.8,74.3,29.98,SE,135,0.0,5.4,92,0.00,,---,0.00,VWS V14.00,2013-06-15 13:20:00,
2013-06-15 08:30:00,77.2,74.0,29.98,South,182,0.0,4.9,90,0.00,,---,0.00,VWS V14.00,2013-06-15 13:30:00,
2013-06-15 08:40:00,77.2,73.7,29.98,ESE,115,0.0,4.0,89,0.00,,---,0.00,VWS V14.00,2013-06-15 13:40:00,
2013-06-15 08:50:00,77.4,73.5,29.98,SE,125,4.5,4.9,88,0.00,,---,0.00,VWS V14.00,2013-06-15 13:50:00,
2013-06-15 09:00:00,77.4,72.8,29.98,ENE,75,0.0,4.9,86,0.00,,---,0.00,VWS V14.00,2013-06-15 14:00:00,
2013-06-15 09:10:00,77.5,72.7,29.98,SSE,163,2.7,6.3,85,0.00,,---,0.00,VWS V14.00,2013-06-15 14:10:00,
2013-06-15 09:20:00,77.7,72.8,29.98,ESE,112,0.0,4.9,85,0.00,,---,0.00,VWS V14.00,2013-06-15 14:20:00,
2013-06-15 09:30:00,78.3,72.7,29.98,SW,225,0.0,6.7,83,0.00,,---,0.00,VWS V14.00,2013-06-15 14:30:00,
2013-06-15 09:40:00,78.6,72.7,29.98,SSE,151,0.0,6.3,82,0.00,,---,0.00,VWS V14.00,2013-06-15 14:40:00,
2013-06-15 09:50:00,78.6,72.3,29.98,SW,220,0.0,6.3,81,0.00,,---,0.00,VWS V14.00,2013-06-15 14:50:00,
2013-06-15 10:00:00,78.4,71.8,29.98,East,84,4.5,6.7,80,0.00,,---,0.00,VWS V14.00,2013-06-15 15:00:00,
2013-06-15 10:10:00,78.3,71.6,29.98,SSE,153,3.1,7.4,80,0.00,,---,0.00,VWS V14.00,2013-06-15 15:10:00,
2013-06-15 10:20:00,78.4,71.8,29.98,SW,227,2.7,4.5,80,0.00,,---,0.00,VWS V14.00,2013-06-15 15:20:00,
2013-06-15 10:30:00,78.6,71.6,29.98,SSE,156,0.0,4.9,79,0.00,,---,0.00,VWS V14.00,2013-06-15 15:30:00,
2013-06-15 10:40:00,79.3,72.3,29.98,East,100,0.0,4.9,79,0.00,,---,0.00,VWS V14.00,2013-06-15 15:40:00,
2013-06-15 10:50:00,80.2,72.8,29.98,South,173,0.0,4.5,78,0.00,,---,0.00,VWS V14.00,2013-06-15 15:50:00,
2013-06-15 11:00:00,81.1,73.6,29.98,SW,219,0.0,4.0,78,0.00,,---,0.00,VWS V14.00,2013-06-15 16:00:00,
2013-06-15 11:10:00,82.2,74.3,29.98,SSE,162,0.0,5.4,77,0.00,,---,0.00,VWS V14.00,2013-06-15 16:10:00,
2013-06-15 11:20:00,82.8,74.4,29.98,SSW,210,0.0,4.9,76,0.00,,---,0.00,VWS V14.00,2013-06-15 16:20:00,
2013-06-15 11:30:00,83.3,74.6,29.98,SSE,164,0.0,2.7,75,0.00,,---,0.00,VWS V14.00,2013-06-15 16:30:00,
2013-06-15 11:40:00,84.4,74.8,29.98,SE,131,0.0,4.0,73,0.00,,---,0.00,VWS V14.00,2013-06-15 16:40:00,
2013-06-15 11:50:00,85.3,74.8,29.98,SE,131,0.0,2.7,71,0.00,,---,0.00,VWS V14.00,2013-06-15 16:50:00,
2013-06-15 12:00:00,85.6,74.3,29.98,SE,128,0.0,4.0,69,0.00,,---,0.00,VWS V14.00,2013-06-15 17:00:00,
2013-06-15 12:10:00,85.8,74.5,29.98,SE,132,0.0,3.6,69,0.00,,---,0.00,VWS V14.00,2013-06-15 17:10:00,
2013-06-15 12:20:00,86.4,74.6,29.98,SE,130,0.0,2.7,68,0.00,,---,0.00,VWS V14.00,2013-06-15 17:20:00,
2013-06-15 12:30:00,87.6,74.9,29.98,SE,141,0.0,4.0,66,0.00,,---,0.00,VWS V14.00,2013-06-15 17:30:00,
2013-06-15 12:40:00,87.4,74.2,29.98,SSW,212,0.0,4.0,65,0.00,,---,0.00,VWS V14.00,2013-06-15 17:40:00,
2013-06-15 12:50:00,87.1,73.9,29.98,South,181,0.0,0.0,65,0.00,,---,0.00,VWS V14.00,2013-06-15 17:50:00,
2013-06-15 13:00:00,86.5,73.4,29.98,South,187,0.0,0.0,65,0.00,,---,0.00,VWS V14.00,2013-06-15 18:00:00,
2013-06-15 13:10:00,86.2,73.5,29.98,South,187,0.0,3.1,66,0.00,,---,0.00,VWS V14.00,2013-06-15 18:10:00,
2013-06-15 13:20:00,85.6,72.5,29.95,South,181,0.0,3.6,65,0.00,,---,0.00,VWS V14.00,2013-06-15 18:20:00,
2013-06-15 13:30:00,85.5,72.4,29.95,South,184,0.0,3.1,65,0.00,,---,0.00,VWS V14.00,2013-06-15 18:30:00,
2013-06-15 13:40:00,85.5,72.8,29.95,South,186,0.0,0.0,66,0.00,,---,0.00,VWS V14.00,2013-06-15 18:40:00,
2013-06-15 13:50:00,85.8,73.2,29.95,South,182,3.1,3.1,66,0.00,,---,0.00,VWS V14.00,2013-06-15 18:50:00,
2013-06-15 14:00:00,86.7,74.0,29.95,South,183,0.0,3.1,66,0.00,,---,0.00,VWS V14.00,2013-06-15 19:00:00,
2013-06-15 14:10:00,87.4,74.2,29.95,South,187,0.0,3.1,65,0.00,,---,0.00,VWS V14.00,2013-06-15 19:10:00,
2013-06-15 14:20:00,87.8,74.1,29.95,South,186,0.0,3.1,64,0.00,,---,0.00,VWS V14.00,2013-06-15 19:20:00,
2013-06-15 14:30:00,88.3,74.6,29.95,South,180,2.7,2.7,64,0.00,,---,0.00,VWS V14.00,2013-06-15 19:30:00,
2013-06-15 14:40:00,89.1,74.8,29.95,South,182,0.0,3.1,63,0.00,,---,0.00,VWS V14.00,2013-06-15 19:40:00,
2013-06-15 14:50:00,89.1,74.3,29.92,SE,143,0.0,4.5,62,0.00,,---,0.00,VWS V14.00,2013-06-15 19:50:00,
2013-06-15 15:00:00,88.3,73.2,29.92,WSW,246,0.0,4.0,61,0.00,,---,0.00,VWS V14.00,2013-06-15 20:00:00,
2013-06-15 15:10:00,88.2,72.5,29.92,South,171,2.7,3.6,60,0.00,,---,0.00,VWS V14.00,2013-06-15 20:10:00,
2013-06-15 15:20:00,88.7,73.0,29.92,South,169,0.0,2.7,60,0.00,,---,0.00,VWS V14.00,2013-06-15 20:20:00,
2013-06-15 15:30:00,89.6,73.9,29.92,South,172,0.0,0.0,60,0.00,,---,0.00,VWS V14.00,2013-06-15 20:30:00,
2013-06-15 15:40:00,89.4,73.2,29.92,South,169,0.0,3.1,59,0.00,,---,0.00,VWS V14.00,2013-06-15 20:40:00,
2013-06-15 15:50:00,89.6,73.4,29.92,SW,220,2.7,4.5,59,0.00,,---,0.00,VWS V14.00,2013-06-15 20:50:00,
2013-06-15 16:00:00,90.1,73.4,29.92,SSE,157,2.7,4.0,58,0.00,,---,0.00,VWS V14.00,2013-06-15 21:00:00,
2013-06-15 16:10:00,90.1,72.9,29.92,WSW,251,0.0,4.5,57,0.00,,---,0.00,VWS V14.00,2013-06-15 21:10:00,
2013-06-15 16:20:00,89.4,72.2,29.92,WSW,251,0.0,0.0,57,0.00,,---,0.00,VWS V14.00,2013-06-15 21:20:00,
2013-06-15 16:30:00,88.7,71.5,29.92,WSW,239,0.0,2.7,57,0.00,,---,0.00,VWS V14.00,2013-06-15 21:30:00,
2013-06-15 16:40:00,88.3,71.2,29.92,WSW,255,0.0,3.6,57,0.00,,---,0.00,VWS V14.00,2013-06-15 21:40:00,
2013-06-15 16:50:00,88.0,70.3,29.92,SSW,209,0.0,4.0,56,0.00,,---,0.00,VWS V14.00,2013-06-15 21:50:00,
2013-06-15 17:00:00,88.0,70.8,29.92,SSW,207,0.0,0.0,57,0.00,,---,0.00,VWS V14.00,2013-06-15 22:00:00,
2013-06-15 17:10:00,87.8,71.2,29.92,SSW,202,0.0,0.0,58,0.00,,---,0.00,VWS V14.00,2013-06-15 22:10:00,
2013-06-15 17:20:00,87.8,71.2,29.89,SSW,207,0.0,0.0,58,0.00,,---,0.00,VWS V14.00,2013-06-15 22:20:00,
2013-06-15 17:30:00,88.2,72.0,29.89,SSW,202,0.0,0.0,59,0.00,,---,0.00,VWS V14.00,2013-06-15 22:30:00,
2013-06-15 17:40:00,88.3,72.2,29.89,SSW,208,0.0,0.0,59,0.00,,---,0.00,VWS V14.00,2013-06-15 22:40:00,
2013-06-15 17:50:00,88.3,72.2,29.89,SSW,205,0.0,0.0,59,0.00,,---,0.00,VWS V14.00,2013-06-15 22:50:00,
2013-06-15 18:00:00,88.3,72.2,29.89,SSW,208,0.0,0.0,59,0.00,,---,0.00,VWS V14.00,2013-06-15 23:00:00,
2013-06-15 18:10:00,88.2,72.5,29.89,SSE,168,3.1,3.1,60,0.00,,---,0.00,VWS V14.00,2013-06-15 23:10:00,
2013-06-15 18:20:00,87.6,71.5,29.86,South,173,0.0,3.1,59,0.00,,---,0.00,VWS V14.00,2013-06-15 23:20:00,
2013-06-15 18:30:00,87.4,71.9,29.86,South,170,0.0,0.0,60,0.00,,---,0.00,VWS V14.00,2013-06-15 23:30:00,
2013-06-15 18:40:00,87.4,71.9,29.86,South,170,0.0,0.0,60,0.00,,---,0.00,VWS V14.00,2013-06-15 23:40:00,
2013-06-15 18:50:00,87.4,71.4,29.86,South,175,0.0,0.0,59,0.00,,---,0.00,VWS V14.00,2013-06-15 23:50:00,
2013-06-15 19:00:00,87.1,71.5,29.86,South,170,0.0,0.0,60,0.00,,---,0.00,VWS V14.00,2013-06-16 00:00:00,
2013-06-15 19:10:00,86.7,71.2,29.86,South,170,0.0,0.0,60,0.00,,---,0.00,VWS V14.00,2013-06-16 00:10:00,
2013-06-15 19:20:00,86.7,71.7,29.86,South,172,0.0,0.0,61,0.00,,---,0.00,VWS V14.00,2013-06-16 00:20:00,
2013-06-15 19:30:00,87.1,72.0,29.86,SSE,167,0.0,3.1,61,0.00,,---,0.00,VWS V14.00,2013-06-16 00:30:00,
2013-06-15 19:40:00,87.4,71.9,29.86,South,170,0.0,2.7,60,0.00,,---,0.00,VWS V14.00,2013-06-16 00:40:00,
2013-06-15 19:50:00,87.6,72.0,29.89,SSE,165,0.0,3.1,60,0.00,,---,0.00,VWS V14.00,2013-06-16 00:50:00,
2013-06-15 20:00:00,87.4,69.8,29.89,SSE,150,0.0,0.0,56,0.00,,---,0.00,VWS V14.00,2013-06-16 01:00:00,
2013-06-15 20:10:00,87.3,68.1,29.89,SSE,150,0.0,2.7,53,0.00,,---,0.00,VWS V14.00,2013-06-16 01:10:00,
2013-06-15 20:20:00,86.7,66.4,29.89,SSE,148,0.0,0.0,51,0.00,,---,0.00,VWS V14.00,2013-06-16 01:20:00,
2013-06-15 20:30:00,86.4,65.5,29.89,SSE,150,0.0,0.0,50,0.00,,---,0.00,VWS V14.00,2013-06-16 01:30:00,
2013-06-15 20:40:00,85.8,65.1,29.89,ENE,73,0.0,3.6,50,0.00,,---,0.00,VWS V14.00,2013-06-16 01:40:00,
2013-06-15 20:50:00,85.1,65.0,29.89,East,82,0.0,0.0,51,0.00,,---,0.00,VWS V14.00,2013-06-16 01:50:00,
2013-06-15 21:00:00,84.7,64.6,29.89,East,82,0.0,0.0,51,0.00,,---,0.00,VWS V14.00,2013-06-16 02:00:00,
2013-06-15 21:10:00,84.7,65.7,29.89,SE,131,3.1,4.5,53,0.00,,---,0.00,VWS V14.00,2013-06-16 02:10:00,
2013-06-15 21:20:00,84.9,66.4,29.89,ESE,111,0.0,4.9,54,0.00,,---,0.00,VWS V14.00,2013-06-16 02:20:00,
2013-06-15 21:30:00,85.1,67.1,29.89,SSE,157,2.7,6.3,55,0.00,,---,0.00,VWS V14.00,2013-06-16 02:30:00,
2013-06-15 21:40:00,84.9,67.0,29.89,South,191,0.0,4.0,55,0.00,,---,0.00,VWS V14.00,2013-06-16 02:40:00,
2013-06-15 21:50:00,84.9,67.5,29.92,SSE,153,3.1,3.1,56,0.00,,---,0.00,VWS V14.00,2013-06-16 02:50:00,
2013-06-15 22:00:00,84.6,67.7,29.92,SSE,159,0.0,5.8,57,0.00,,---,0.00,VWS V14.00,2013-06-16 03:00:00,
2013-06-15 22:10:00,84.4,68.0,29.92,SSE,162,0.0,6.3,58,0.00,,---,0.00,VWS V14.00,2013-06-16 03:10:00,
2013-06-15 22:20:00,83.8,68.0,29.92,South,170,0.0,5.4,59,0.00,,---,0.00,VWS V14.00,2013-06-16 03:20:00,
2013-06-15 22:30:00,83.5,68.2,29.92,SSE,157,2.7,4.5,60,0.00,,---,0.00,VWS V14.00,2013-06-16 03:30:00,
2013-06-15 22:40:00,82.9,68.6,29.92,West,260,3.1,4.9,62,0.00,,---,0.00,VWS V14.00,2013-06-16 03:40:00,
2013-06-15 22:50:00,82.2,67.9,29.92,SSE,167,4.9,5.8,62,0.00,,---,0.00,VWS V14.00,2013-06-16 03:50:00,
2013-06-15 23:00:00,81.7,67.9,29.92,SE,136,3.1,6.7,63,0.00,,---,0.00,VWS V14.00,2013-06-16 04:00:00,
2013-06-15 23:10:00,81.1,67.8,29.95,SSW,212,3.1,5.4,64,0.00,,---,0.00,VWS V14.00,2013-06-16 04:10:00,
2013-06-15 23:20:00,80.6,67.8,29.95,SSE,168,0.0,4.5,65,0.00,,---,0.00,VWS V14.00,2013-06-16 04:20:00,
2013-06-15 23:30:00,80.2,67.9,29.95,SE,127,0.0,5.4,66,0.00,,---,0.00,VWS V14.00,2013-06-16 04:30:00,
2013-06-15 23:40:00,79.9,67.5,29.92,South,182,3.6,3.6,66,0.00,,---,0.00,VWS V14.00,2013-06-16 04:40:00,
2013-06-15 23:50:00,79.7,67.8,29.95,SE,143,0.0,5.4,67,0.00,,---,0.00,VWS V14.00,2013-06-16 04:50:00,